This demonstration page uses our WeatherBlox Daily Observations layout. Learn more.

Left ArrowRight Arrow

38.20091, -84.87328

Hourly Observations for September 7, 2021

Temp ( °F °C ) Dew Point ( °F °C ) Humidity (%) Winds ( mph kmh ) Pressure ( in mb ) Visibility ( mi km ) Precip ( " mm )
12:53 am 00:53 Clear 63 17.2 60 15.6 90 90 Calm 29.98 1015 10 16 0.00 0.00
1:53 am 01:53 Clear 61 16.1 59 15 93 93 Calm 29.98 1015 10 16 0.00 0.00
2:53 am 02:53 Clear 61 16.1 60 15.6 97 97 Calm 29.97 1015 10 16 0.00 0.00
3:53 am 03:53 Clear 59 15 58 14.4 96 96 Calm 29.97 1015 10 16 0.00 0.00
4:53 am 04:53 Clear 59 15 57 13.9 93 93 Calm 29.97 1015 10 16 0.00 0.00
5:53 am 05:53 Clear 60 15.6 58 14.4 93 93 Calm 29.98 1015 10 16 0.00 0.00
6:53 am 06:53 Clear 59 15 58 14.4 96 96 Calm 30.00 1016 10 16 0.00 0.00
7:53 am 07:53 Sunny 61 16.1 58 14.4 90 90 Calm 30.01 1016 10 16 0.00 0.00
8:53 am 08:53 Sunny 67 19.4 61 16.1 81 81 Calm 30.02 1017 10 16 0.00 0.00
9:53 am 09:53 Sunny 73 22.8 61 16.1 66 66 SW 5 7 30.01 1016 10 16 0.00 0.00
11:53 am 11:53 Sunny 80 26.7 59 15 49 49 SSW 7 11 29.99 1016 10 16 0.00 0.00
12:53 pm 12:53 Sunny 82 27.8 58 14.4 44 44 WSW 3 6 29.97 1015 10 16 0.00 0.00
1:53 pm 13:53 Sunny 83 28.3 56 13.3 40 40 S 8 13 29.95 1014 10 16 0.00 0.00
2:53 pm 14:53 Sunny 84 28.9 55 12.8 37 37 Calm 29.93 1014 10 16 0.00 0.00
3:53 pm 15:53 Sunny 84 28.9 57 13.9 40 40 S 8 13 29.89 1012 10 16 0.00 0.00
4:53 pm 16:53 Sunny 83 28.3 59 15 44 44 S 8 13 29.86 1011 10 16 0.00 0.00
5:53 pm 17:53 Sunny 83 28.3 59 15 44 44 SW 8 13 29.86 1011 10 16 0.00 0.00
6:53 pm 18:53 Sunny 80 26.7 60 15.6 51 51 SW 6 9 29.85 1011 10 16 0.00 0.00
7:53 pm 19:53 Sunny 75 23.9 60 15.6 60 60 SSW 7 11 29.85 1011 10 16 0.00 0.00
8:53 pm 20:53 Clear 70 21.1 61 16.1 73 73 SSW 3 6 29.87 1011 10 16 0.00 0.00
9:53 pm 21:53 Clear 68 20 62 16.7 81 81 WSW 3 6 29.87 1012 10 16 0.00 0.00
10:53 pm 22:53 Clear 68 20 61 16.1 78 78 SSW 7 11 29.85 1011 10 16 0.00 0.00
11:53 pm 23:53 Clear 69 20.6 61 16.1 76 76 SW 3 6 29.85 1011 10 16 0.00 0.00

Powered by AerisWeather